Regional Weather Roundup
Issued by NWS

Home | Current Version | Previous Version | Text Only | Print | Product List | Glossary Off
Versions: 1 2 3 4 5 6 7 8 9 10 11 12 13 14 15 16 17 18 19 20 21 22 23 24 25 26 27 28 29 30 31 32 33 34 35 36 37 38 39 40 41 42 43 44 45 46 47 48 49 50

000
ASUS43 KDTX 201701
RWRMI
MICHIGAN HOURLY REGIONAL WEATHER ROUNDUP
NATIONAL WEATHER SERVICE DETROIT/PONTIAC MI
1200 PM EST SAT JAN 20 2018

NOTE: "FAIR" INDICATES FEW OR NO CLOUDS BELOW 12,000 FEET WITH NO
SIGNIFICANT WEATHER AND/OR OBSTRUCTION TO VISIBILITY.

MIZ047>049-052>055-059>063-066>070-074>076-081>083-201800-
SOUTHEAST LOWER MICHIGAN

CITY           SKY/WX    TMP DP  RH WIND       PRES   REMARKS
ADRIAN         FAIR      36  27  69 W13       29.97S WCI  27
ALMA           FAIR      41  32  71 SW9       29.89F
ANN ARBOR      FAIR      38  28  67 SW7       29.93F WCI  33
BAD AXE        FAIR      39  31  72 W12       29.88S WCI  32
CARO           FAIR      40  31  70 SW8       29.88F WCI  34
DETROIT CITY   FAIR      40  27  59 W12       29.94R WCI  33
DETROIT        PTSUNNY   40  28  62 SW14      29.95R WCI  32
FLINT          FAIR      38  27  64 W13       29.92R WCI  30
GROSSE ILE     FAIR      39  28  64 W14G20    29.94F WCI  31
HILLSDALE      FAIR      37  28  70 SW10      29.93F WCI  30
HOWELL         FAIR      38  29  69 W12       29.91S WCI  31

CITY           SKY/WX    TMP DP  RH WIND       PRES   REMARKS
JACKSON        FAIR      38  28  67 SW12      29.93S WCI  30
LAMBERTVILLE   FAIR      37  27  67 W13G20    29.97S WCI  29
LANSING        FAIR      38  29  70 SW14      29.92S WCI  30
LAPEER         FAIR      40  28  63 W10       29.90S WCI  34
MONROE         FAIR      37  27  66 SW16      29.95F WCI  28
MT. CLEMENS    MOSUNNY   40  25  55 SW9       29.91S WCI  34
PONTIAC        PTSUNNY   39  29  67 W13       29.90S WCI  31
PORT HOPE        N/A     40  30  67 W10       29.85S WCI  33
PORT HURON     FAIR      41  27  56 W6        29.91S
TRI CITIES     FAIR      39  33  79 SW13      29.89S WCI  31
MIDLAND        FAIR      42  31  64 SW6       29.88R
TROY           FAIR      42  28  57 W10G16    29.93S
SAGINAW HB     FAIR      37  30  75 SW7       29.89S WCI  32
$$
MIZ043>046-050>051-056>058-064>065-071>073-077>080-201800-
SOUTHWEST LOWER MICHIGAN

CITY           SKY/WX    TMP DP  RH WIND       PRES   REMARKS
BATTLE CREEK   FAIR      37  28  70 SW10      29.94R WCI  30
BENTON HARBOR  FAIR      40  28  62 SW15      29.95S WCI  32
BIG RAPIDS     FAIR      41  29  62 SW6       29.88R
COLDWATER      FAIR      36  28  73 SW9       29.95F WCI  29
FREMONT        FAIR      44  27  52 W7        29.89S
HOLLAND        FAIR      40  31  70 SW12      29.94R WCI  33
GRAND RAPIDS   PTSUNNY   40  30  67 SW16      29.92R WCI  31
IONIA          FAIR      38  29  70 SW12      29.89F WCI  31
KALAMAZOO      FAIR      39  28  64 SW8       29.95R WCI  33
LUDINGTON      FAIR      38  34  84 SW5       29.88F WCI  35
MARSHALL       FAIR      37  28  69 SW9       29.94R WCI  30
MOUNT PLEASANT FAIR      43  31  62 CALM      29.88R
MUSKEGON       PTSUNNY   41  32  70 SW12      29.92R
SOUTH HAVEN    FAIR      40  29  65 SW10G20   29.95R WCI  33
$$
MIZ016>042-201800-
NORTHERN LOWER MICHIGAN

CITY           SKY/WX    TMP DP  RH WIND       PRES   REMARKS
ALPENA         FAIR      42  32  67 VRB3      29.83R
BEAVER ISLAND  FAIR      41  32  69 W7        29.85R
BELLAIRE       FAIR      39  33  80 SW5       29.87S
CADILLAC       FAIR      38  32  78 SW6       29.86R WCI  34
CHARLEVOIX     FAIR      40  32  74 W8        29.89R WCI  34
FRANKFORT      FAIR      41  33  74 NW5       29.88S
GAYLORD        FAIR      37  31  78 W6        29.82R WCI  32
GRAYLING       FAIR      39  30  70 W8        29.86R WCI  33
HARBOR SPRINGS FAIR      37  32  82 W6        29.84S WCI  32
HOUGHTON LAKE  FAIR      36  30  79 W5        29.86R WCI  32
MANISTEE       FAIR      40  33  76 W6        29.88S
OSCODA         FAIR      36  28  74 SW8       29.84F WCI  29
PELLSTON       FAIR      39  30  70 W12       29.84R WCI  32
ROGERS CITY    CLOUDY    40  30  67 NW10G17   29.83S WCI  34
TRAVERSE CITY  PTSUNNY   39  32  76 W6        29.86R WCI  35
$$
MIZ007>008-015-201800-
EASTERN UPPER MICHIGAN

CITY           SKY/WX    TMP DP  RH WIND       PRES   REMARKS
KINROSS        FAIR      39  29  67 NW20      29.78F WCI  29
MACKINAC ISLAN FAIR      35  30  82 SW10G17   29.82R WCI  27
NEWBERRY       PTSUNNY   38  30  71 NW3       29.80R
S. S. MARIE    CLOUDY    41  32  70 NW8       29.78R
$$
MIZ004>006-011>014-085-201800-
CENTRAL UPPER MICHIGAN

CITY           SKY/WX    TMP DP  RH WIND       PRES   REMARKS
ESCANABA       FAIR      39  29  67 W7        29.86R WCI  34
MENOMINEE      FAIR      39  29  67 NW5       29.89R
SAWYER-GWINN   SUNNY     36  28  75 W6        29.82R WCI  31
$$
MIZ001>003-009>011-084-201800-
WESTERN UPPER MICHIGAN

CITY           SKY/WX    TMP DP  RH WIND       PRES   REMARKS
IRON MOUNTAIN  FAIR      34  28  79 NW5       29.83S WCI  30
HOUGHTON       FAIR      38  29  70 W18       29.79R WCI  28
COPPER HARBOR    N/A     35  30  82 CALM      29.80R
IRONWOOD       FAIR      36  30  79 SW5       29.85R WCI  32
$$

ABBREVIATIONS USED IN REMARKS
   TC - TEMPERATURE IN CELSIUS
  WCI - WIND CHILL INDEX
   HX - HEAT INDEX
  VSB - VISIBILITY




USA.gov is the U.S. government's official web portal to all federal, state and local government web resources and services.